STARLINK-36451, 67339

Orbit data source: Space-Track

STARLINK-36451, 67339 is a payload satellite owned by SpaceX/Seattle (US) in LEO that was launched on Fri, 09 Jan 2026 UTC via an FALCON 9 launch vehicle from the Air Force Eastern Test Range (AFETR). Payload-class satellites include a variety of spacecraft equipped with specific instruments for various scientific and technological missions. These include communications satellites like Starlink; space stations such as the ISS; scientific satellites like the Hubble; Earth observation satellites from companies like Planet Labs, Umbra, and HawkEye 360; GPS; miniature CubeSats for education and research; and military/defense satellites.

Loading next visibility...
Identifier
67339, 2026-003F
Orbit
LEO
Country
Flag of USUS
Related business
Manufacturer
SpaceX/Seattle
Mission
Operational Commercial Communications
Bus & Motor
STARLINK V2MO, Unknown motor
Mass
575 kg wet, ~530 kg dry
Launch date (UTC)
2026-01-09 (5 months ago)
Launch vehicle
FALCON 9
Launch site
Air Force Eastern Test Range (AFETR)
Object type
Payload
Rocket body
Debris
Shape & HBR
Box + 2 Pan, 17.7 m
Radar Cross Section
36.964 m², Large (>1 m²)

Expand to show TLE details & history
Last TLE update: 21 hours ago

TLE from 21 hours ago
0 STARLINK-36451
1 67339U 26003F   26170.95981255  .00017474  00000-0  64297-3 0  9993
2 67339  42.9992   9.6056 0001103 307.1789  52.8962 15.27582573 24464
Epoch: 2026-06-19T23:02Z
TLE epoch observation values (Epoch: 2026-06-19T23:02:07.804Z)
Latitude
Longitude
115.89178°
Altitude
482.36 km
Speed
7.626 km/s
True Right ascension
00h 38m 25s
True Declination
0° 00' 00"
Sunlit
Object was in daylight at epoch
Visualization orbit readout
Latitude
Unknown
Longitude
Unknown
Altitude
Unknown
Speed
Unknown
Apparent Right ascension
Unknown
Apparent Declination
Unknown
Sunlit
N/A
Visualization observer readout
Local Sidereal Time
07:19:40
Azimuth
Unknown
Elevation
Unknown
Doppler factor
Unknown
Orbital elements
Apogee altitude
485.744 km
Perigee altitude
484.23 km
Semi-major axis
6,863.124 km
Eccentricity
0.00011
Inclination
42.9992°
RAAN
9.6056°
Arg. of periapsis
307.1789°
True anomaly
52.90628°
Mean anomaly
52.8962°
Eccentric anomaly
52.90124°
Mean motion
3.81734 °/min
Orbital period
94.31 mins
BSTAR
0.00064297
Loading maneuver chart data...
Computing Atmospheric mass density...
Loading historical data...
Loading historical data...
Loading historical data...
Loading historical data...
Loading historical data...
Loading historical data...
Loading historical data...

Documentation

Showing up to 5 results
|